Location: Saratoga Springs
(43.0831°N, 73.7850°W)
Time: 17:13:17
(UTC-04:00)

Vanguard 2 - Pass Details

Date: 21 April 2024
Orbit: 553 x 2914 km, 32.9° (Epoch: 19 May)

Event Time Altitude Azimuth Distance (km) Brightness Sun altitude
Rises 01:11:53 0° 216° (SW) 5,379 - -34.7°
Reaches altitude 10° 01:15:26 10° 208° (SSW) 4,680 - -34.7°
Maximum altitude 01:27:46 37° 147° (SSE) 3,683 - -34.3°
Exits shadow 01:28:37 37° 142° (SE) 3,722 10.6 -34.3°
Drops below altitude 10° 01:42:51 10° 90° (E) 5,737 12.1 -33.7°
Sets 01:47:45 0° 83° (E) 6,692 12.6 -33.5°
